This is the latest recevied weather packets stored in our database for station/object KG2V. If no packets are shown the sender has not sent any weather packets the latest 10 day(s).
| Time | Temp. | Humidity | Pressure | Rain* | Wind** | Luminosity | Snow |
|---|---|---|---|---|---|---|---|
| 1777773686 | 5° C | 76% | 1010.9 hPa | 0 mm | - | 0 W/m² | - |
| 1777773382 | 5° C | 76% | 1011 hPa | 0 mm | - | 0 W/m² | - |
| 1777772170 | 5° C | 76% | 1010.8 hPa | 0 mm | - | 0 W/m² | - |
| 1777770656 | 5° C | 75% | 1010.8 hPa | 0 mm | - | 0 W/m² | - |
| 1777761563 | 5° C | 75% | 1010.2 hPa | 0 mm | - | 41 W/m² | - |
| 1777761261 | 5° C | 75% | 1010.5 hPa | 0 mm | - | 25 W/m² | - |
| 1777760959 | 5° C | 75% | 1010.3 hPa | 0 mm | - | 16 W/m² | - |
| 1777760357 | 5° C | 74% | 1010.3 hPa | 0 mm | - | 17 W/m² | - |
| 1777760054 | 5.56° C | 73% | 1010.4 hPa | 0 mm | - | 21 W/m² | - |
| 1777759751 | 5.56° C | 73% | 1010.4 hPa | 0 mm | - | 25 W/m² | - |
| 1777759446 | 5.56° C | 72% | 1010.3 hPa | 0 mm | - | 29 W/m² | - |
| 1777758841 | 5.56° C | 71% | 1010.3 hPa | 0 mm | - | 45 W/m² | - |
| 1777758234 | 6.11° C | 71% | 1010.1 hPa | 0 mm | - | 65 W/m² | - |
| 1777757931 | 6.11° C | 71% | 1010.2 hPa | 0 mm | - | 72 W/m² | - |
| 1777757628 | 6.11° C | 70% | 1010.2 hPa | 0 mm | - | 84 W/m² | - |
| 1777757327 | 6.11° C | 71% | 1010.1 hPa | 0 mm | - | 81 W/m² | - |
| 1777757025 | 6.67° C | 68% | 1010 hPa | 0 mm | - | 57 W/m² | - |
| 1777756722 | 6.67° C | 67% | 1010 hPa | 0 mm | - | 81 W/m² | - |
| 1777756418 | 7.22° C | 62% | 1010 hPa | 0 mm | - | 103 W/m² | - |
| 1777755510 | 6.67° C | 61% | 1010.3 hPa | 0 mm | - | 83 W/m² | - |
| 1777751270 | 7.22° C | 66% | 1010.2 hPa | 0 mm | - | 184 W/m² | - |
| 1777747032 | 7.22° C | 64% | 1010.2 hPa | 0 mm | - | 87 W/m² | - |
| 1777745817 | 7.78° C | 57% | 1010 hPa | 0 mm | - | 152 W/m² | - |
| 1777745516 | 7.22° C | 58% | 1010.2 hPa | 0 mm | - | 162 W/m² | - |
| 1777745212 | 7.78° C | 58% | 1010.1 hPa | 0 mm | - | 95 W/m² | - |
* Rain latest hour (hover to see other rain measurements)
** Current wind speed in m/s (hover to see current wind gust speed)